Location: Chiroubles
(46.1812°N, 4.6660°E)
Time: 18:23:15
(UTC+00:00)

Meteor 2-20 Rocket - Pass Details

Date: 15 August 2020
Orbit: 940 x 960 km, 82.5° (Epoch: 23 September)

Event Time Altitude Azimuth Distance (km) Brightness Sun altitude
Rises 20:06:39 0° 350° (N) 3,652 8.3 -12.5°
Reaches altitude 10° 20:09:10 10° 350° (N) 2,701 7.5 -12.9°
Maximum altitude 20:15:22 86° 262° (W) 965 4.5 -13.8°
Drops below altitude 10° 20:21:29 10° 175° (S) 2,670 6.4 -14.6°
Enters shadow 20:21:58 - 175° (S) 2,852 6.5 -14.7°
